Date String (YYYY-MM-DD hh:mm:ss) UTC,Instrument flags,absolute air pressure of the measurement (hPa),sample flow rate (lpm),inlet stack bypass flow (lpm),air temperature of the measurement (°C),ambient temperature measured by the external sensor (°C),aerosol sample conditioner tube jacket temperature (°C),OPC LED temperature (°C),internal box temperature (°C),relative humidity of the measurement (%),span deviation,mass concentration of particles derived from Lorenz-Mie calculation of OPC scattering (μg/m³),mass concentration of particles derived from Lorenz-Mie calculation of OPC scattering (μg/m³),mass concentration of particles derived from Lorenz-Mie calculation of OPC scattering (μg/m³)
DateTimeUTC,F1_M11,P_M11,Q1_M11,Q2_M11,T1_M11,T2_M11,T3_M11,T4_M11,T5_M11,U1_M11,ZSPAN_M11,X0_M11,X2_M11,X1_M11
2024-01-23 12:00:00,SystemResetWarning,0825.1,5.01,000.00,022.7,021.9,000.0,031.1,024.1,17.0,0002.6,0011.67,0007.44,0007.04
2024-01-23 12:01:00,SystemResetWarning,0825.1,4.99,000.00,022.7,021.8,000.0,031.1,024.1,17.0,0002.9,0011.63,0007.48,0007.07
2024-01-23 12:02:00,SystemResetWarning,0825.1,4.99,000.00,022.7,021.8,000.0,031.1,024.1,17.0,0003.0,0011.40,0007.54,0007.12
2024-01-23 12:03:00,SystemResetWarning,0825.1,5.00,000.00,022.7,021.8,000.0,031.1,024.1,17.0,0003.3,0011.46,0007.61,0007.18
2024-01-23 12:04:00,SystemResetWarning,0825.1,4.99,000.00,022.7,021.8,000.0,031.1,024.1,17.0,0003.4,0011.58,0007.68,0007.22
2024-01-23 12:05:00,SystemResetWarning,0825.1,5.01,000.00,022.7,021.8,000.0,031.1,024.1,17.0,0003.4,0011.61,0007.70,0007.26
2024-01-23 12:06:00,SystemResetWarning,0825.1,5.01,000.00,022.7,021.8,000.0,031.1,024.1,17.0,0003.1,0011.73,0007.77,0007.30
2024-01-23 12:07:00,SystemResetWarning,0825.1,5.00,000.00,022.7,021.8,000.0,031.1,024.0,17.0,0003.1,0011.82,0007.86,0007.37
2024-01-23 12:08:00,SystemResetWarning,0825.1,5.00,000.00,022.7,021.8,000.0,031.1,024.0,17.0,0003.4,0011.88,0007.94,0007.46
2024-01-23 12:09:00,SystemResetWarning,0825.2,5.00,000.00,022.7,021.8,000.0,031.1,024.1,17.0,0003.4,0012.19,0008.01,0007.55
2024-01-23 12:10:00,SystemResetWarning,0825.2,4.99,000.00,022.7,021.8,000.0,031.1,024.1,17.0,0003.5,0012.38,0008.07,0007.64
2024-01-23 12:11:00,SystemResetWarning,0825.2,4.99,000.00,022.7,021.8,000.0,031.1,024.1,17.0,0003.7,0012.56,0008.15,0007.71
2024-01-23 12:12:00,SystemResetWarning,0825.3,5.01,000.00,022.7,021.8,000.0,031.0,024.0,17.0,0003.4,0012.58,0008.22,0007.77
2024-01-23 12:13:00,SystemResetWarning,0825.3,5.01,000.00,022.7,021.7,000.0,031.0,024.0,16.9,0003.3,0012.62,0008.25,0007.82
2024-01-23 12:14:00,SystemResetWarning,0825.2,5.00,000.00,022.7,021.7,000.0,031.0,024.0,16.9,0003.1,0012.71,0008.28,0007.85
2024-01-23 12:15:00,SystemResetWarning,0825.2,5.00,000.00,022.6,021.7,000.0,031.0,024.0,17.0,0003.1,0012.77,0008.32,0007.88
2024-01-23 12:16:00,SystemResetWarning,0825.2,5.01,000.00,022.6,021.7,000.0,031.0,024.0,17.0,0002.7,0012.86,0008.37,0007.92
2024-01-23 12:17:00,SystemResetWarning,0825.2,4.99,000.00,022.6,021.7,000.0,031.0,024.0,17.0,0002.8,0012.85,0008.40,0007.96
2024-01-23 12:18:00,SystemResetWarning,0825.2,4.99,000.00,022.6,021.7,000.0,031.0,024.0,17.0,0002.8,0012.82,0008.42,0008.02
2024-01-23 12:19:00,SystemResetWarning,0825.3,5.00,000.00,022.6,021.7,000.0,031.0,024.0,17.0,0002.6,0012.68,0008.43,0008.05
2024-01-23 12:20:00,SystemResetWarning,0825.2,5.00,000.00,022.6,021.7,000.0,031.0,023.9,17.0,0002.8,0012.13,0008.45,0008.07
2024-01-23 12:21:00,SystemResetWarning,0825.2,5.00,000.00,022.6,021.6,000.0,031.0,023.9,17.1,0002.7,0012.00,0008.46,0008.08
2024-01-23 12:22:00,SystemResetWarning,0825.2,5.01,000.00,022.6,021.6,000.0,031.0,023.9,17.1,0002.7,0012.08,0008.50,0008.10
2024-01-23 12:23:00,SystemResetWarning,0825.2,5.01,000.00,022.6,021.6,000.0,031.0,023.9,17.1,0002.8,0012.15,0008.50,0008.10
2024-01-23 12:24:00,SystemResetWarning,0825.2,4.99,000.00,022.6,021.6,000.0,031.0,023.9,17.1,0002.8,0012.11,0008.47,0008.09
2024-01-23 12:25:00,SystemResetWarning,0825.2,5.00,000.00,022.6,021.6,000.0,031.0,023.9,17.1,0002.7,0012.09,0008.47,0008.09
2024-01-23 12:26:00,SystemResetWarning,0825.2,5.00,000.00,022.5,021.6,000.0,031.0,023.9,17.1,0002.7,0012.00,0008.44,0008.09
2024-01-23 12:27:00,SystemResetWarning,0825.3,5.00,000.00,022.5,021.6,000.0,031.0,023.9,17.1,0002.8,0012.02,0008.45,0008.11
2024-01-23 12:28:00,SystemResetWarning,0825.2,5.00,000.00,022.5,021.6,000.0,031.0,023.9,17.1,0002.7,0012.06,0008.48,0008.12
2024-01-23 12:29:00,SystemResetWarning,0825.2,5.00,000.00,022.5,021.6,000.0,031.0,023.9,17.1,0002.4,0012.01,0008.47,0008.10
2024-01-23 12:30:00,SystemResetWarning,0825.2,5.00,000.00,022.5,021.6,000.0,031.0,023.9,17.1,0002.5,0012.05,0008.47,0008.08
2024-01-23 12:31:00,SystemResetWarning,0825.2,5.00,000.00,022.5,021.6,000.0,030.9,023.9,17.1,0002.3,0012.39,0008.49,0008.07
2024-01-23 12:32:00,SystemResetWarning,0825.2,5.01,000.00,022.5,021.6,000.0,030.9,023.9,17.1,0002.2,0012.42,0008.49,0008.06
2024-01-23 12:33:00,SystemResetWarning,0825.2,5.00,000.00,022.5,021.6,000.0,030.9,023.9,17.1,0002.1,0012.34,0008.48,0008.04
2024-01-23 12:34:00,SystemResetWarning,0825.3,5.00,000.00,022.5,021.6,000.0,030.9,023.9,17.1,0001.9,0012.10,0008.44,0008.03
2024-01-23 12:35:00,SystemResetWarning,0825.2,5.01,000.00,022.5,021.7,000.0,030.9,023.9,17.1,0001.5,0012.09,0008.42,0008.01
2024-01-23 12:36:00,SystemResetWarning,0825.2,5.00,000.00,022.5,021.7,000.0,030.9,023.9,17.1,0002.0,0012.30,0008.42,0007.99
2024-01-23 12:37:00,SystemResetWarning,0825.2,5.01,000.00,022.5,021.7,000.0,030.9,023.9,17.1,0002.1,0012.36,0008.42,0007.98
2024-01-23 12:38:00,SystemResetWarning,0825.2,5.00,000.00,022.5,021.7,000.0,030.9,023.9,17.1,0002.2,0012.50,0008.43,0007.96
2024-01-23 12:39:00,SystemResetWarning,0825.2,5.00,000.00,022.5,021.7,000.0,030.9,023.9,17.1,0002.4,0012.46,0008.38,0007.92
2024-01-23 12:40:00,SystemResetWarning,0825.3,5.00,000.00,022.5,021.7,000.0,030.9,023.9,17.1,0002.5,0012.38,0008.34,0007.90
2024-01-23 12:41:00,SystemResetWarning,0825.2,5.00,000.00,022.5,021.6,000.0,030.9,023.8,17.1,0002.7,0012.35,0008.30,0007.88
2024-01-23 12:42:00,SystemResetWarning,0825.3,5.00,000.00,022.5,021.6,000.0,030.9,023.8,17.1,0002.8,0012.43,0008.27,0007.86
2024-01-23 12:43:00,SystemResetWarning,0825.3,5.01,000.00,022.5,021.6,000.0,030.9,023.8,17.1,0002.7,0012.56,0008.23,0007.85
2024-01-23 12:44:00,SystemResetWarning,0825.3,5.00,000.00,022.5,021.6,000.0,030.9,023.8,17.1,0002.8,0012.45,0008.19,0007.85
2024-01-23 12:45:00,SystemResetWarning,0825.3,5.00,000.00,022.4,021.6,000.0,030.9,023.8,17.1,0002.7,0012.46,0008.20,0007.86
2024-01-23 12:46:00,SystemResetWarning,0825.3,5.00,000.00,022.4,021.6,000.0,030.9,023.8,17.1,0002.8,0012.67,0008.23,0007.89
2024-01-23 12:47:00,SystemResetWarning,0825.2,5.00,000.00,022.4,021.6,000.0,030.9,023.8,17.1,0002.6,0012.88,0008.27,0007.93
2024-01-23 12:48:00,SystemResetWarning,0825.3,4.99,000.00,022.4,021.6,000.0,030.9,023.8,17.1,0002.4,0012.92,0008.32,0007.95
2024-01-23 12:49:00,SystemResetWarning,0825.4,4.99,000.00,022.4,021.6,000.0,030.9,023.8,17.1,0002.4,0012.84,0008.34,0007.98
2024-01-23 12:50:00,SystemResetWarning,0825.4,4.99,000.00,022.4,021.6,000.0,030.8,023.8,17.1,0002.4,0012.86,0008.37,0008.00
2024-01-23 12:51:00,SystemResetWarning,0825.4,5.00,000.00,022.4,021.6,000.0,030.8,023.8,17.1,0002.3,0013.05,0008.42,0008.02
2024-01-23 12:52:00,SystemResetWarning,0825.4,5.00,000.00,022.4,021.6,000.0,030.8,023.8,17.1,0002.3,0013.14,0008.46,0008.05
2024-01-23 12:53:00,SystemResetWarning,0825.4,5.00,000.00,022.4,021.6,000.0,030.8,023.8,17.1,0002.3,0012.76,0008.47,0008.07
2024-01-23 12:54:00,SystemResetWarning,0825.4,5.00,000.00,022.4,021.6,000.0,030.8,023.8,17.1,0002.7,0012.38,0008.51,0008.10
2024-01-23 12:55:00,SystemResetWarning,0825.4,5.00,000.00,022.4,021.6,000.0,030.8,023.8,17.1,0002.8,0012.42,0008.55,0008.13
2024-01-23 12:56:00,SystemResetWarning,0825.5,5.00,000.00,022.4,021.6,000.0,030.8,023.8,17.0,0002.6,0012.45,0008.57,0008.15
2024-01-23 12:57:00,SystemResetWarning,0825.5,5.00,000.00,022.4,021.5,000.0,030.8,023.8,17.1,0002.4,0012.28,0008.54,0008.15
2024-01-23 12:58:00,SystemResetWarning,0825.4,4.99,000.00,022.4,021.5,000.0,030.8,023.8,17.1,0002.4,0011.87,0008.50,0008.12
2024-01-23 12:59:00,SystemResetWarning,0825.5,5.00,000.00,022.4,021.5,000.0,030.8,023.8,17.1,0002.5,0011.78,0008.45,0008.10
